Weather History for KMHT - January, 2013

Change the Weather History Date:

Saturday, January 12, 2013

  Actual Average Record
Temperature  
Mean Temperature 36 °F -  
Max Temperature 39 °F 29 °F 58 °F (1983)
Min Temperature 33 °F 6 °F -22 °F (1988)
Degree Days  
Heating Degree Days 29    
Moisture  
Dew Point 35 °F    
Average Humidity 97    
Maximum Humidity 100    
Minimum Humidity 93    
Precipitation  
Precipitation 0.01 in - - ()
Snow  
Snow 0.00 in - - ()
Snow Depth 6.00 in    
Sea Level Pressure  
Sea Level Pressure 30.17 in    
Wind  
Wind Speed 0 mph (WNW)    
Max Wind Speed 5 mph    
Max Gust Speed -    
Visibility 1 miles    
Events Fog , Rain    
Averages and records for this station are not official NWS values.
T = Trace of Precipitation, MM = Missing Value Source: NWS Daily Summary

Daily Weather History Graph

Daily Weather History Graph

Search for Another Location

Airport or City:

Trip Planner

Search our weather history database for the weather conditions in past years. The results will help you decide how hot, cold, wet, or windy it might be!

Date:

Astronomy

Jan. 12, 2013 Rise Set
Actual Time 7:15 AM EST 4:33 PM EST
Civil Twilight 6:43 AM EST 5:05 PM EST
Nautical Twilight 6:08 AM EST 5:40 PM EST
Astronomical Twilight 5:34 AM EST 6:14 PM EST
Moon 7:29 AM EST (1/12) 6:01 PM EST (1/12)
Length of Visible Light 10h 21m
Length of Day
9h 18m
New Moon, 1% of the Moon is Illuminated
Jan 12
New Moon
Jan 18
First Quarter
Jan 26
Full
Feb 3
Last Quarter
Feb 10
New

Hourly Weather History & Observations

Time (EST) Temp. Windchill Dew Point Humidity Pressure Visibility Wind Dir Wind Speed Gust Speed Precip Events Conditions
12:53 AM 34.0 °F - 33.1 °F 96% 30.24 in 1.0 mi Calm Calm - 0.00 in Rain Light Rain
1:15 AM 33.8 °F - 32.0 °F 93% 30.19 in 1.0 mi Calm Calm - 0.00 in   Light Drizzle
1:53 AM 34.0 °F - 33.1 °F 96% 30.23 in 1.0 mi Calm Calm - 0.00 in   Light Drizzle
2:37 AM 33.8 °F - 33.8 °F 100% 30.17 in 0.8 mi Calm Calm - 0.00 in   Light Drizzle
2:53 AM 33.1 °F - 33.1 °F 100% 30.22 in 0.5 mi Calm Calm - 0.01 in Fog Light Drizzle
3:53 AM 34.0 °F - 33.1 °F 96% 30.21 in 0.5 mi Calm Calm - 0.00 in Fog Light Drizzle
4:25 AM 33.8 °F - 33.8 °F 100% 30.15 in 0.8 mi Calm Calm - 0.00 in   Light Drizzle
4:39 AM 33.8 °F - 33.8 °F 100% 30.15 in 0.5 mi Calm Calm - 0.00 in Fog Light Drizzle
4:53 AM 34.0 °F - 33.1 °F 96% 30.21 in 0.8 mi Calm Calm - 0.00 in   Light Drizzle
5:16 AM 33.8 °F - 33.8 °F 100% 30.16 in 1.0 mi Calm Calm - 0.00 in   Light Drizzle
5:53 AM 34.0 °F - 33.1 °F 96% 30.20 in 1.0 mi Calm Calm - 0.00 in   Light Drizzle
6:53 AM 34.0 °F 31.0 °F 33.1 °F 96% 30.22 in 1.0 mi NW 3.5 mph - 0.00 in   Light Drizzle
7:06 AM 33.8 °F - 33.8 °F 100% 30.17 in 0.8 mi Calm Calm - 0.00 in   Light Drizzle
7:42 AM 33.8 °F - 33.8 °F 100% 30.18 in 0.2 mi Calm Calm - 0.00 in Fog Light Drizzle
7:50 AM 33.8 °F - 33.8 °F 100% 30.17 in 0.2 mi Calm Calm - 0.00 in   Light Drizzle
7:53 AM 34.0 °F - 33.1 °F 96% 30.22 in 1.0 mi Calm Calm - 0.00 in   Light Drizzle
8:00 AM 35.6 °F - 33.8 °F 93% 30.17 in 0.2 mi Calm Calm - 0.00 in Fog Light Drizzle
8:19 AM 33.8 °F 30.8 °F 33.8 °F 100% 30.18 in 1.0 mi North 3.5 mph - 0.00 in   Light Drizzle
8:53 AM 34.0 °F 29.8 °F 33.1 °F 96% 30.25 in 1.0 mi North 4.6 mph - 0.00 in   Light Drizzle
9:00 AM 33.8 °F 30.8 °F 33.8 °F 100% 30.19 in 0.2 mi NNW 3.5 mph - 0.00 in Fog Light Drizzle
9:53 AM 35.1 °F - 34.0 °F 96% 30.24 in 0.2 mi Calm Calm - 0.00 in Fog Fog
10:09 AM 35.6 °F - 33.8 °F 93% 30.18 in 0.2 mi Calm Calm - N/A Fog Fog
10:22 AM 35.6 °F - 35.6 °F 100% 30.18 in 0.8 mi Calm Calm - N/A   Overcast
10:40 AM 35.6 °F - 35.6 °F 100% 30.18 in 1.5 mi Calm Calm - N/A   Overcast
10:53 AM 36.0 °F - 36.0 °F 100% 30.22 in 1.5 mi Calm Calm - N/A   Overcast
11:22 AM 37.4 °F - 35.6 °F 93% 30.15 in 1.5 mi Calm Calm - N/A   Overcast
11:53 AM 37.0 °F - 36.0 °F 96% 30.18 in 1.5 mi Calm Calm - N/A   Overcast
12:03 PM 37.4 °F - 35.6 °F 93% 30.12 in 1.5 mi Calm Calm - N/A   Overcast
12:31 PM 37.4 °F - 35.6 °F 93% 30.12 in 1.5 mi Calm Calm - N/A   Overcast
12:49 PM 37.4 °F - 35.6 °F 93% 30.12 in 1.5 mi Calm Calm - N/A   Overcast
12:53 PM 39.0 °F - 37.0 °F 93% 30.17 in 1.5 mi Calm Calm - N/A   Overcast
1:06 PM 39.2 °F - 37.4 °F 93% 30.13 in 1.5 mi Calm Calm - N/A   Overcast
1:53 PM 39.0 °F - 37.0 °F 93% 30.19 in 1.0 mi Calm Calm - N/A   Overcast
2:35 PM 39.2 °F - 37.4 °F 93% 30.14 in 0.5 mi Calm Calm - N/A Fog Fog
2:53 PM 39.0 °F - 37.9 °F 96% 30.19 in 0.5 mi Calm Calm - 0.00 in Fog Light Drizzle
3:53 PM 39.0 °F - 37.9 °F 96% 30.19 in 0.5 mi Calm Calm - 0.00 in Fog Light Drizzle
4:53 PM 39.0 °F - 37.9 °F 96% 30.19 in 0.5 mi Calm Calm - 0.00 in Fog Light Drizzle
5:53 PM 39.0 °F - 37.9 °F 96% 30.19 in 0.5 mi Calm Calm - 0.00 in Fog Light Drizzle
6:53 PM 37.9 °F 34.4 °F 37.0 °F 97% 30.17 in 0.5 mi SSE 4.6 mph - 0.00 in Fog Light Drizzle
7:03 PM 37.4 °F 33.8 °F 37.4 °F 100% 30.11 in 1.0 mi SE 4.6 mph - 0.00 in   Light Drizzle
7:53 PM 39.2 °F - 37.4 °F 93% 30.12 in 0.5 mi Calm Calm - N/A Fog Light Drizzle
8:53 PM 37.9 °F - 37.9 °F 100% 30.18 in 0.5 mi Calm Calm - 0.00 in Fog Light Drizzle
9:09 PM 37.4 °F - 37.4 °F 100% 30.12 in 1.0 mi Calm Calm - 0.00 in   Light Drizzle
9:25 PM 39.2 °F 37.0 °F 37.4 °F 93% 30.12 in 0.5 mi SSW 3.5 mph - 0.00 in Fog Light Drizzle
9:53 PM 37.9 °F - 37.0 °F 97% 30.16 in 0.5 mi Calm Calm - 0.00 in Fog Light Drizzle
10:53 PM 37.9 °F - 37.0 °F 97% 30.17 in 0.5 mi Calm Calm - 0.00 in Fog Fog
11:10 PM 37.4 °F - 35.6 °F 93% 30.12 in 0.2 mi Calm Calm - N/A Fog Fog
11:24 PM 37.4 °F - 37.4 °F 100% 30.11 in 0.5 mi Calm Calm - N/A Fog Fog
11:53 PM 39.0 °F 36.8 °F 37.9 °F 96% 30.17 in 0.5 mi South 3.5 mph - N/A Fog Fog